Time,TemperatureF,DewpointF,PressureIn,WindDirection,WindDirectionDegrees,WindSpeedMPH,WindSpeedGustMPH,Humidity,HourlyPrecipIn,Conditions,Clouds,dailyrainin,SoftwareType,DateUTC
2013-03-23 00:02:00,32.0,24.0,30.00,East,88,0.0,-999.0,71,-99.99,,,-99.99,,2013-03-23 05:02:00,
2013-03-23 00:12:00,32.0,24.0,30.00,East,88,0.0,-999.0,71,-99.99,,,-99.99,,2013-03-23 05:12:00,
2013-03-23 00:22:00,32.0,24.0,30.00,East,88,0.0,-999.0,72,-99.99,,,-99.99,,2013-03-23 05:22:00,
2013-03-23 00:32:00,32.0,23.0,30.01,East,88,0.0,-999.0,70,-99.99,,,-99.99,,2013-03-23 05:32:00,
2013-03-23 00:42:00,32.0,23.0,30.01,East,88,0.0,-999.0,70,-99.99,,,-99.99,,2013-03-23 05:42:00,
2013-03-23 00:52:00,32.0,23.0,30.02,East,88,0.0,-999.0,70,-99.99,,,-99.99,,2013-03-23 05:52:00,
2013-03-23 01:02:00,32.0,23.0,30.03,East,88,0.0,-999.0,70,-99.99,,,-99.99,,2013-03-23 06:02:00,
2013-03-23 01:12:00,32.0,23.0,30.03,East,88,0.0,-999.0,70,-99.99,,,-99.99,,2013-03-23 06:12:00,
2013-03-23 01:22:00,32.0,23.0,30.02,East,88,0.0,-999.0,70,-99.99,,,-99.99,,2013-03-23 06:22:00,
2013-03-23 01:32:00,32.0,24.0,30.02,East,88,0.0,-999.0,71,-99.99,,,-99.99,,2013-03-23 06:32:00,
2013-03-23 01:42:00,32.0,24.0,30.02,East,88,0.0,-999.0,71,-99.99,,,-99.99,,2013-03-23 06:42:00,
2013-03-23 01:52:00,31.0,24.0,30.02,East,88,0.0,-999.0,76,-99.99,,,-99.99,,2013-03-23 06:52:00,
2013-03-23 02:02:00,31.0,24.0,30.02,East,88,1.0,-999.0,75,-99.99,,,-99.99,,2013-03-23 07:02:00,
2013-03-23 02:12:00,31.0,24.0,30.02,East,88,1.0,-999.0,75,-99.99,,,-99.99,,2013-03-23 07:12:00,
2013-03-23 02:22:00,31.0,24.0,30.03,NE,53,0.0,-999.0,74,-99.99,,,-99.99,,2013-03-23 07:22:00,
2013-03-23 02:32:00,31.0,24.0,30.04,NE,47,2.0,-999.0,76,-99.99,,,-99.99,,2013-03-23 07:32:00,
2013-03-23 02:42:00,31.0,24.0,30.04,NE,47,2.0,-999.0,76,-99.99,,,-99.99,,2013-03-23 07:42:00,
2013-03-23 02:52:00,31.0,24.0,30.05,NE,35,3.0,-999.0,76,-99.99,,,-99.99,,2013-03-23 07:52:00,
2013-03-23 03:02:00,31.0,25.0,30.05,NE,35,2.0,-999.0,77,-99.99,,,-99.99,,2013-03-23 08:02:00,
2013-03-23 03:12:00,31.0,25.0,30.05,NE,35,2.0,-999.0,77,-99.99,,,-99.99,,2013-03-23 08:12:00,
2013-03-23 03:22:00,31.0,25.0,30.03,ENE,63,0.0,-999.0,77,-99.99,,,-99.99,,2013-03-23 08:22:00,
2013-03-23 03:32:00,31.0,25.0,30.03,East,92,1.0,-999.0,78,-99.99,,,-99.99,,2013-03-23 08:32:00,
2013-03-23 03:42:00,31.0,25.0,30.03,East,92,1.0,-999.0,78,-99.99,,,-99.99,,2013-03-23 08:42:00,
2013-03-23 03:52:00,31.0,25.0,30.03,East,95,1.0,-999.0,78,-99.99,,,-99.99,,2013-03-23 08:52:00,
2013-03-23 04:02:00,31.0,25.0,30.01,ENE,67,2.0,-999.0,79,-99.99,,,-99.99,,2013-03-23 09:02:00,
2013-03-23 04:12:00,31.0,25.0,30.01,ENE,67,2.0,-999.0,79,-99.99,,,-99.99,,2013-03-23 09:12:00,
2013-03-23 04:22:00,31.0,25.0,30.01,ENE,69,2.0,-999.0,79,-99.99,,,-99.99,,2013-03-23 09:22:00,
2013-03-23 04:33:00,31.0,25.0,30.01,East,84,3.0,-999.0,79,-99.99,,,-99.99,,2013-03-23 09:33:00,
2013-03-23 04:42:00,31.0,25.0,30.01,East,84,3.0,-999.0,79,-99.99,,,-99.99,,2013-03-23 09:42:00,
2013-03-23 04:53:00,31.0,25.0,30.02,East,83,3.0,-999.0,79,-99.99,,,-99.99,,2013-03-23 09:53:00,
2013-03-23 05:03:00,31.0,26.0,30.03,ENE,70,1.0,-999.0,80,-99.99,,,-99.99,,2013-03-23 10:03:00,
2013-03-23 05:12:00,31.0,26.0,30.03,ENE,70,1.0,-999.0,80,-99.99,,,-99.99,,2013-03-23 10:12:00,
2013-03-23 05:23:00,31.0,26.0,30.03,NE,52,2.0,-999.0,81,-99.99,,,-99.99,,2013-03-23 10:23:00,
2013-03-23 05:33:00,30.0,25.0,30.05,NE,43,1.0,-999.0,81,-99.99,,,-99.99,,2013-03-23 10:33:00,
2013-03-23 05:42:00,30.0,25.0,30.05,NE,43,1.0,-999.0,81,-99.99,,,-99.99,,2013-03-23 10:42:00,
2013-03-23 05:52:00,30.0,25.0,30.06,NE,48,0.0,-999.0,82,-99.99,,,-99.99,,2013-03-23 10:52:00,
2013-03-23 06:03:00,30.0,25.0,30.05,NE,46,2.0,-999.0,82,-99.99,,,-99.99,,2013-03-23 11:03:00,
2013-03-23 06:12:00,30.0,25.0,30.05,NE,46,2.0,-999.0,82,-99.99,,,-99.99,,2013-03-23 11:12:00,
2013-03-23 06:22:00,30.0,25.0,30.05,NNE,33,2.0,-999.0,83,-99.99,,,-99.99,,2013-03-23 11:22:00,
2013-03-23 06:32:00,30.0,25.0,30.06,NNE,33,0.0,-999.0,83,-99.99,,,-99.99,,2013-03-23 11:32:00,
2013-03-23 06:42:00,30.0,25.0,30.06,NNE,33,0.0,-999.0,83,-99.99,,,-99.99,,2013-03-23 11:42:00,
2013-03-23 06:51:00,30.0,25.0,30.06,NNE,33,0.0,-999.0,83,-99.99,,,-99.99,,2013-03-23 11:51:00,
2013-03-23 07:02:00,30.0,26.0,30.06,NNE,33,0.0,-999.0,84,-99.99,,,-99.99,,2013-03-23 12:02:00,
2013-03-23 07:12:00,30.0,26.0,30.06,NNE,33,0.0,-999.0,84,-99.99,,,-99.99,,2013-03-23 12:12:00,
2013-03-23 07:22:00,30.0,26.0,30.07,NNE,33,0.0,-999.0,84,-99.99,,,-99.99,,2013-03-23 12:22:00,
2013-03-23 07:33:00,30.0,26.0,30.06,NNE,30,3.0,-999.0,84,-99.99,,,-99.99,,2013-03-23 12:33:00,
2013-03-23 07:42:00,30.0,26.0,30.06,NNE,30,3.0,-999.0,84,-99.99,,,-99.99,,2013-03-23 12:42:00,
2013-03-23 07:53:00,30.0,26.0,30.07,NE,36,3.0,-999.0,85,-99.99,,,-99.99,,2013-03-23 12:53:00,
2013-03-23 08:02:00,30.0,26.0,30.06,NE,38,5.0,-999.0,85,-99.99,,,-99.99,,2013-03-23 13:02:00,
2013-03-23 08:12:00,30.0,26.0,30.06,NE,38,5.0,-999.0,85,-99.99,,,-99.99,,2013-03-23 13:12:00,
2013-03-23 08:22:00,30.0,26.0,30.07,NNE,23,2.0,-999.0,85,-99.99,,,-99.99,,2013-03-23 13:22:00,
2013-03-23 08:32:00,30.0,26.0,30.06,NE,42,5.0,-999.0,85,-99.99,,,-99.99,,2013-03-23 13:32:00,
2013-03-23 08:42:00,30.0,26.0,30.06,NE,42,5.0,-999.0,85,-99.99,,,-99.99,,2013-03-23 13:42:00,
2013-03-23 08:53:00,30.0,26.0,30.06,NE,38,4.0,-999.0,85,-99.99,,,-99.99,,2013-03-23 13:53:00,
2013-03-23 09:03:00,31.0,27.0,30.05,NE,53,5.0,-999.0,85,-99.99,,,-99.99,,2013-03-23 14:03:00,
2013-03-23 09:12:00,31.0,27.0,30.05,NE,53,5.0,-999.0,85,-99.99,,,-99.99,,2013-03-23 14:12:00,
2013-03-23 09:22:00,31.0,26.0,30.06,NE,38,3.0,-999.0,83,-99.99,,,-99.99,,2013-03-23 14:22:00,
2013-03-23 09:32:00,32.0,27.0,30.07,NE,49,4.0,-999.0,82,-99.99,,,-99.99,,2013-03-23 14:32:00,
2013-03-23 09:42:00,32.0,27.0,30.07,NE,49,4.0,-999.0,82,-99.99,,,-99.99,,2013-03-23 14:42:00,
2013-03-23 09:52:00,32.0,27.0,30.08,NE,35,3.0,-999.0,80,-99.99,,,-99.99,,2013-03-23 14:52:00,
2013-03-23 10:03:00,32.0,26.0,30.09,NNE,31,2.0,-999.0,79,-99.99,,,-99.99,,2013-03-23 15:03:00,
2013-03-23 10:12:00,32.0,26.0,30.09,NNE,31,2.0,-999.0,79,-99.99,,,-99.99,,2013-03-23 15:12:00,
2013-03-23 10:22:00,32.0,26.0,30.09,NE,36,3.0,-999.0,78,-99.99,,,-99.99,,2013-03-23 15:22:00,
2013-03-23 10:33:00,33.0,27.0,30.09,NNE,30,4.0,-999.0,77,-99.99,,,-99.99,,2013-03-23 15:33:00,
2013-03-23 10:43:00,33.0,27.0,30.09,NNE,30,4.0,-999.0,77,-99.99,,,-99.99,,2013-03-23 15:43:00,
2013-03-23 10:52:00,33.0,27.0,30.09,NNE,18,1.0,-999.0,78,-99.99,,,-99.99,,2013-03-23 15:52:00,
2013-03-23 11:03:00,34.0,27.0,30.09,NNE,24,3.0,-999.0,75,-99.99,,,-99.99,,2013-03-23 16:03:00,
2013-03-23 11:12:00,34.0,27.0,30.09,NNE,24,3.0,-999.0,75,-99.99,,,-99.99,,2013-03-23 16:12:00,
2013-03-23 11:23:00,35.0,27.0,30.09,NNE,32,3.0,-999.0,73,-99.99,,,-99.99,,2013-03-23 16:23:00,
2013-03-23 11:32:00,35.0,27.0,30.09,NE,34,5.0,-999.0,72,-99.99,,,-99.99,,2013-03-23 16:32:00,
2013-03-23 11:43:00,35.0,27.0,30.09,NE,34,5.0,-999.0,72,-99.99,,,-99.99,,2013-03-23 16:43:00,
2013-03-23 11:53:00,36.0,28.0,30.08,NE,34,3.0,-999.0,72,-99.99,,,-99.99,,2013-03-23 16:53:00,
2013-03-23 12:02:00,36.0,26.0,30.09,NE,46,6.0,-999.0,66,-99.99,,,-99.99,,2013-03-23 17:02:00,
2013-03-23 12:12:00,36.0,26.0,30.08,NE,36,5.0,-999.0,67,-99.99,,,-99.99,,2013-03-23 17:12:00,
2013-03-23 12:22:00,36.0,26.0,30.08,NE,36,5.0,-999.0,67,-99.99,,,-99.99,,2013-03-23 17:22:00,
2013-03-23 12:32:00,37.0,26.0,30.07,NE,49,6.0,-999.0,65,-99.99,,,-99.99,,2013-03-23 17:32:00,
2013-03-23 12:42:00,37.0,26.0,30.07,NE,49,6.0,-999.0,65,-99.99,,,-99.99,,2013-03-23 17:42:00,
2013-03-23 12:53:00,37.0,25.0,30.06,NE,46,6.0,-999.0,62,-99.99,,,-99.99,,2013-03-23 17:53:00,
2013-03-23 13:03:00,37.0,26.0,30.05,NNE,24,6.0,-999.0,63,-99.99,,,-99.99,,2013-03-23 18:03:00,
2013-03-23 13:12:00,37.0,26.0,30.05,NNE,24,6.0,-999.0,63,-99.99,,,-99.99,,2013-03-23 18:12:00,
2013-03-23 13:22:00,38.0,25.0,30.05,North,355,7.0,-999.0,60,-99.99,,,-99.99,,2013-03-23 18:22:00,
2013-03-23 13:32:00,38.0,26.0,30.05,NNE,17,7.0,-999.0,61,-99.99,,,-99.99,,2013-03-23 18:32:00,
2013-03-23 13:42:00,38.0,26.0,30.05,NNE,17,7.0,-999.0,61,-99.99,,,-99.99,,2013-03-23 18:42:00,
2013-03-23 13:52:00,38.0,25.0,30.04,NE,44,6.0,-999.0,60,-99.99,,,-99.99,,2013-03-23 18:52:00,
2013-03-23 14:03:00,37.0,25.0,30.03,NNE,32,6.0,-999.0,62,-99.99,,,-99.99,,2013-03-23 19:03:00,
2013-03-23 14:12:00,37.0,25.0,30.03,NNE,32,6.0,-999.0,62,-99.99,,,-99.99,,2013-03-23 19:12:00,
2013-03-23 14:22:00,37.0,26.0,30.03,NE,41,7.0,-999.0,63,-99.99,,,-99.99,,2013-03-23 19:22:00,
2013-03-23 14:32:00,37.0,25.0,30.02,ENE,63,8.0,-999.0,62,-99.99,,,-99.99,,2013-03-23 19:32:00,
2013-03-23 14:42:00,37.0,25.0,30.02,ENE,63,8.0,-999.0,62,-99.99,,,-99.99,,2013-03-23 19:42:00,
2013-03-23 14:53:00,37.0,26.0,30.01,NE,54,5.0,-999.0,64,-99.99,,,-99.99,,2013-03-23 19:53:00,
2013-03-23 15:02:00,37.0,26.0,30.01,NE,40,6.0,-999.0,65,-99.99,,,-99.99,,2013-03-23 20:02:00,
2013-03-23 15:12:00,37.0,26.0,30.01,NE,40,6.0,-999.0,65,-99.99,,,-99.99,,2013-03-23 20:12:00,
2013-03-23 15:22:00,37.0,28.0,30.01,North,355,4.0,-999.0,70,-99.99,,,-99.99,,2013-03-23 20:22:00,
2013-03-23 15:32:00,37.0,28.0,30.01,North,355,4.0,-999.0,70,-99.99,,,-99.99,,2013-03-23 20:32:00,
2013-03-23 15:42:00,37.0,28.0,30.01,North,355,4.0,-999.0,70,-99.99,,,-99.99,,2013-03-23 20:42:00,
2013-03-23 15:53:00,35.0,29.0,30.01,North,11,4.0,-999.0,80,-99.99,,,-99.99,,2013-03-23 20:53:00,
2013-03-23 16:02:00,34.0,30.0,30.01,NNE,13,4.0,-999.0,85,-99.99,,,-99.99,,2013-03-23 21:02:00,
2013-03-23 16:12:00,34.0,30.0,30.01,NNE,13,4.0,-999.0,85,-99.99,,,-99.99,,2013-03-23 21:12:00,
2013-03-23 16:22:00,34.0,30.0,30.02,NNE,19,5.0,-999.0,86,-99.99,,,-99.99,,2013-03-23 21:22:00,
2013-03-23 16:32:00,34.0,30.0,30.02,NE,39,2.0,-999.0,86,-99.99,,,-99.99,,2013-03-23 21:32:00,
2013-03-23 16:43:00,34.0,30.0,30.02,NE,39,2.0,-999.0,86,-99.99,,,-99.99,,2013-03-23 21:43:00,
2013-03-23 16:54:00,33.0,30.0,30.02,North,9,3.0,-999.0,88,-99.99,,,-99.99,,2013-03-23 21:54:00,
2013-03-23 17:02:00,33.0,30.0,30.02,NE,34,4.0,-999.0,88,-99.99,,,-99.99,,2013-03-23 22:02:00,
2013-03-23 17:12:00,33.0,30.0,30.02,NE,34,4.0,-999.0,88,-99.99,,,-99.99,,2013-03-23 22:12:00,
2013-03-23 17:23:00,32.0,29.0,30.02,NNE,32,6.0,-999.0,89,-99.99,,,-99.99,,2013-03-23 22:23:00,
2013-03-23 17:32:00,32.0,29.0,30.03,North,9,4.0,-999.0,89,-99.99,,,-99.99,,2013-03-23 22:32:00,
2013-03-23 17:42:00,32.0,29.0,30.03,North,9,4.0,-999.0,89,-99.99,,,-99.99,,2013-03-23 22:42:00,
2013-03-23 17:53:00,32.0,29.0,30.03,NE,36,4.0,-999.0,90,-99.99,,,-99.99,,2013-03-23 22:53:00,
2013-03-23 18:02:00,31.0,29.0,30.03,NE,36,5.0,-999.0,91,-99.99,,,-99.99,,2013-03-23 23:02:00,
2013-03-23 18:12:00,31.0,29.0,30.03,NE,36,5.0,-999.0,91,-99.99,,,-99.99,,2013-03-23 23:12:00,
2013-03-23 18:22:00,31.0,29.0,30.03,NE,46,2.0,-999.0,92,-99.99,,,-99.99,,2013-03-23 23:22:00,
2013-03-23 18:32:00,31.0,29.0,30.03,North,10,3.0,-999.0,93,-99.99,,,-99.99,,2013-03-23 23:32:00,
2013-03-23 18:42:00,31.0,29.0,30.03,North,10,3.0,-999.0,93,-99.99,,,-99.99,,2013-03-23 23:42:00,
2013-03-23 18:52:00,31.0,29.0,30.04,North,9,4.0,-999.0,93,-99.99,,,-99.99,,2013-03-23 23:52:00,
2013-03-23 19:02:00,30.0,28.0,30.04,North,360,4.0,-999.0,93,-99.99,,,-99.99,,2013-03-24 00:02:00,
2013-03-23 19:12:00,30.0,28.0,30.04,North,360,4.0,-999.0,93,-99.99,,,-99.99,,2013-03-24 00:12:00,
2013-03-23 19:22:00,30.0,28.0,30.05,North,5,4.0,-999.0,93,-99.99,,,-99.99,,2013-03-24 00:22:00,
2013-03-23 19:32:00,30.0,28.0,30.05,NNE,26,3.0,-999.0,93,-99.99,,,-99.99,,2013-03-24 00:32:00,
2013-03-23 19:42:00,30.0,28.0,30.05,NNE,26,3.0,-999.0,93,-99.99,,,-99.99,,2013-03-24 00:42:00,
2013-03-23 19:52:00,30.0,28.0,30.06,NE,36,4.0,-999.0,93,-99.99,,,-99.99,,2013-03-24 00:52:00,
2013-03-23 20:02:00,30.0,28.0,30.06,NE,42,3.0,-999.0,93,-99.99,,,-99.99,,2013-03-24 01:02:00,
2013-03-23 20:12:00,30.0,28.0,30.06,NE,42,3.0,-999.0,93,-99.99,,,-99.99,,2013-03-24 01:12:00,
2013-03-23 20:22:00,30.0,28.0,30.07,North,10,1.0,-999.0,93,-99.99,,,-99.99,,2013-03-24 01:22:00,
2013-03-23 20:32:00,30.0,28.0,30.07,NE,34,2.0,-999.0,93,-99.99,,,-99.99,,2013-03-24 01:32:00,
2013-03-23 20:42:00,30.0,28.0,30.07,NE,34,2.0,-999.0,93,-99.99,,,-99.99,,2013-03-24 01:42:00,
2013-03-23 20:53:00,30.0,28.0,30.07,NNE,31,5.0,-999.0,93,-99.99,,,-99.99,,2013-03-24 01:53:00,
2013-03-23 21:02:00,30.0,28.0,30.07,NNE,19,3.0,-999.0,94,-99.99,,,-99.99,,2013-03-24 02:02:00,
2013-03-23 21:12:00,30.0,28.0,30.07,NNE,19,3.0,-999.0,94,-99.99,,,-99.99,,2013-03-24 02:12:00,
2013-03-23 21:22:00,30.0,28.0,30.07,NNE,25,3.0,-999.0,94,-99.99,,,-99.99,,2013-03-24 02:22:00,
2013-03-23 21:32:00,30.0,28.0,30.06,NE,39,3.0,-999.0,94,-99.99,,,-99.99,,2013-03-24 02:32:00,
2013-03-23 21:42:00,30.0,28.0,30.06,NE,39,3.0,-999.0,94,-99.99,,,-99.99,,2013-03-24 02:42:00,
2013-03-23 21:52:00,30.0,28.0,30.05,NE,47,4.0,-999.0,94,-99.99,,,-99.99,,2013-03-24 02:52:00,
2013-03-23 22:02:00,29.0,27.0,30.05,NNE,32,2.0,-999.0,94,-99.99,,,-99.99,,2013-03-24 03:02:00,
2013-03-23 22:12:00,29.0,27.0,30.05,NNE,32,2.0,-999.0,94,-99.99,,,-99.99,,2013-03-24 03:12:00,
2013-03-23 22:22:00,29.0,27.0,30.06,NNE,30,3.0,-999.0,94,-99.99,,,-99.99,,2013-03-24 03:22:00,
2013-03-23 22:33:00,29.0,27.0,30.05,NE,50,3.0,-999.0,94,-99.99,,,-99.99,,2013-03-24 03:33:00,
2013-03-23 22:42:00,29.0,27.0,30.05,NE,50,3.0,-999.0,94,-99.99,,,-99.99,,2013-03-24 03:42:00,
2013-03-23 22:53:00,29.0,27.0,30.06,North,360,2.0,-999.0,94,-99.99,,,-99.99,,2013-03-24 03:53:00,
2013-03-23 23:02:00,29.0,27.0,30.06,NE,49,2.0,-999.0,94,-99.99,,,-99.99,,2013-03-24 04:02:00,
2013-03-23 23:12:00,29.0,27.0,30.06,NE,49,2.0,-999.0,94,-99.99,,,-99.99,,2013-03-24 04:12:00,
2013-03-23 23:22:00,29.0,27.0,30.05,NNE,33,3.0,-999.0,94,-99.99,,,-99.99,,2013-03-24 04:22:00,
2013-03-23 23:32:00,29.0,27.0,30.04,NNE,17,3.0,-999.0,94,-99.99,,,-99.99,,2013-03-24 04:32:00,
2013-03-23 23:42:00,29.0,27.0,30.04,NNE,17,3.0,-999.0,94,-99.99,,,-99.99,,2013-03-24 04:42:00,
2013-03-23 23:53:00,29.0,27.0,30.06,NE,48,3.0,-999.0,93,-99.99,,,-99.99,,2013-03-24 04:53:00,